Location: Unspecified
(43.4680°N, 87.1740°E)
Time: 16:06:03
(UTC+00:00)

ISS - Pass Details

Date: 30 September 2021
Orbit: 417 x 423 km, 51.6° (Epoch: 25 October)

Event Time Altitude Azimuth Distance (km) Brightness Sun altitude
Rises 14:26:02 0° 302° (WNW) 2,368 1.3 -27.7°
Reaches altitude 10° 14:28:08 10° 301° (WNW) 1,502 0.0 -28.0°
Enters shadow 14:29:18 20° 300° (WNW) 1,036 -1.1 -28.2°
